This is the latest recevied weather packets stored in our database for station/object AB2HM. If no packets are shown the sender has not sent any weather packets the latest 10 day(s).
| Time | Temp. | Humidity | Pressure | Rain* | Wind** | Luminosity | Snow |
|---|---|---|---|---|---|---|---|
| 1788298794 | 32.78° C | 57% | 1014.9 hPa | 0 mm | - | - | - |
| 1788296994 | 32.78° C | 56% | 1014.8 hPa | 0 mm | - | - | - |
| 1788295184 | 33.89° C | 53% | 1015 hPa | 0 mm | - | - | - |
| 1788293375 | 33.33° C | 53% | 1015.1 hPa | 0 mm | - | - | - |
| 1788291577 | 33.33° C | 53% | 1015.2 hPa | 0 mm | - | - | - |
| 1788289771 | 33.33° C | 53% | 1015.6 hPa | 0 mm | - | - | - |
| 1788287970 | 32.78° C | 55% | 1015.7 hPa | 0 mm | - | - | - |
| 1788286161 | 31.67° C | 60% | 1016.1 hPa | 0 mm | - | - | - |
| 1788284359 | 30.56° C | 69% | 1016.4 hPa | 0 mm | - | - | - |
| 1788282546 | 29.44° C | 72% | 1016.6 hPa | 0 mm | - | - | - |
| 1788280743 | 28.89° C | 73% | 1017.1 hPa | 0 mm | - | - | - |
| 1788278940 | 28.89° C | 71% | 1017.1 hPa | 0 mm | - | - | - |
| 1788277131 | 28.89° C | 72% | 1017.4 hPa | 0 mm | - | - | - |
| 1788275330 | 28.89° C | 73% | 1017.6 hPa | 0 mm | - | - | - |
| 1788273523 | 28.33° C | 77% | 1017.7 hPa | 0 mm | - | - | - |
| 1788271709 | 27.22° C | 79% | 1017.4 hPa | 0 mm | - | - | - |
| 1788269908 | 27.22° C | 82% | 1017.2 hPa | 0 mm | - | - | - |
| 1788268103 | 26.11° C | 88% | 1017.6 hPa | 0 mm | - | - | - |
| 1788266302 | 25° C | 90% | 1017.8 hPa | 0 mm | - | - | - |
| 1788264498 | 24.44° C | 92% | 1017.9 hPa | 0 mm | - | - | - |
| 1788262674 | 23.89° C | 92% | 1018 hPa | 0 mm | - | - | - |
| 1788260860 | 23.89° C | 92% | 1018 hPa | 0 mm | - | - | - |
| 1788259059 | 23.89° C | 92% | 1018 hPa | 0 mm | - | - | - |
| 1788257251 | 23.89° C | 92% | 1017.8 hPa | 0 mm | - | - | - |
| 1788255455 | 23.33° C | 91% | 1017.7 hPa | 0 mm | - | - | - |
* Rain latest hour (hover to see other rain measurements)
** Current wind speed in m/s (hover to see current wind gust speed)